TimePDT,TemperatureF,Dew PointF,Humidity,Sea Level PressureIn,VisibilityMPH,Wind Direction,Wind SpeedMPH,Gust SpeedMPH,PrecipitationIn,Events,Conditions,WindDirDegrees,DateUTC
1:53 AM,54.0,50.0,86,29.75,5.0,South,13.8,-,0.02,Rain,Light Rain,170,2012-11-01 08:53:00
2:53 AM,55.0,50.0,83,29.76,10.0,SSE,10.4,-,0.04,,Overcast,160,2012-11-01 09:53:00
3:53 AM,55.0,48.9,80,29.75,10.0,South,10.4,-,N/A,,Overcast,180,2012-11-01 10:53:00
4:53 AM,55.0,48.0,77,29.76,10.0,South,12.7,-,0.00,Rain,Light Rain,170,2012-11-01 11:53:00
5:53 AM,54.0,48.0,80,29.75,10.0,SSE,16.1,-,0.05,Rain,Light Rain,160,2012-11-01 12:53:00
6:53 AM,53.1,48.0,83,29.73,10.0,SSE,19.6,31.1,0.07,Rain,Light Rain,160,2012-11-01 13:53:00
7:53 AM,53.1,48.9,86,29.74,9.0,SSE,20.7,29.9,0.05,Rain,Light Rain,160,2012-11-01 14:53:00
8:46 AM,53.6,50.0,88,29.78,6.0,South,15.0,20.7,0.01,Rain,Light Rain,190,2012-11-01 15:46:00
8:53 AM,54.0,50.0,86,29.79,4.0,SSW,18.4,21.9,0.01,Rain,Light Rain,200,2012-11-01 15:53:00
9:53 AM,54.0,51.1,90,29.84,5.0,South,15.0,23.0,0.00,Rain,Light Rain,190,2012-11-01 16:53:00
10:05 AM,55.4,51.8,88,29.86,6.0,SSW,10.4,-,0.01,Rain,Light Rain,210,2012-11-01 17:05:00
11:13 AM,57.2,53.6,88,29.89,10.0,SSW,9.2,-,N/A,,Overcast,210,2012-11-01 18:13:00
11:53 AM,57.0,52.0,83,29.92,10.0,SW,13.8,-,N/A,,Overcast,230,2012-11-01 18:53:00
12:15 PM,57.2,51.8,82,29.93,10.0,WSW,6.9,-,N/A,,Overcast,240,2012-11-01 19:15:00
12:41 PM,57.2,53.6,88,29.94,6.0,SSW,11.5,-,0.00,Rain,Light Rain,210,2012-11-01 19:41:00
12:53 PM,55.9,53.1,90,29.94,2.5,SSW,10.4,-,0.01,Rain,Rain,200,2012-11-01 19:53:00
1:05 PM,57.2,53.6,88,29.94,4.0,South,10.4,-,0.00,Rain,Light Rain,190,2012-11-01 20:05:00
1:53 PM,59.0,54.0,83,29.95,5.0,SW,10.4,-,0.01,Rain,Light Rain,230,2012-11-01 20:53:00
2:53 PM,59.0,52.0,78,29.96,10.0,SW,11.5,-,0.00,,Mostly Cloudy,220,2012-11-01 21:53:00
3:53 PM,59.0,52.0,78,29.96,10.0,SW,9.2,-,N/A,,Overcast,220,2012-11-01 22:53:00
4:53 PM,57.0,53.1,87,29.97,6.0,SW,5.8,-,0.02,Rain,Light Rain,220,2012-11-01 23:53:00
5:18 PM,55.4,53.6,94,29.98,2.5,SW,5.8,-,0.01,Rain,Light Rain,220,2012-11-02 00:18:00
5:26 PM,55.4,53.6,94,29.99,9.0,SSW,4.6,-,0.01,,Overcast,210,2012-11-02 00:26:00
5:41 PM,55.4,53.6,94,29.99,1.8,SW,4.6,-,0.02,Rain,Light Rain,220,2012-11-02 00:41:00
5:53 PM,55.9,53.1,90,29.99,2.0,SSW,6.9,-,0.02,Rain,Light Rain,200,2012-11-02 00:53:00
6:02 PM,55.4,53.6,94,29.99,7.0,SSW,5.8,-,0.01,Rain,Light Rain,210,2012-11-02 01:02:00
6:53 PM,55.9,53.1,90,30.01,10.0,South,5.8,-,0.02,,Overcast,190,2012-11-02 01:53:00
7:29 PM,55.4,51.8,88,30.02,10.0,Calm,Calm,-,N/A,,Mostly Cloudy,0,2012-11-02 02:29:00
7:40 PM,53.6,51.8,94,30.02,10.0,SSW,3.5,-,N/A,,Mostly Cloudy,200,2012-11-02 02:40:00
7:53 PM,54.0,51.1,90,30.02,10.0,Calm,Calm,-,N/A,,Mostly Cloudy,0,2012-11-02 02:53:00
8:53 PM,54.0,51.1,90,30.03,10.0,SSE,3.5,-,N/A,,Overcast,150,2012-11-02 03:53:00
9:53 PM,54.0,51.1,90,30.05,10.0,SSE,5.8,-,N/A,,Mostly Cloudy,150,2012-11-02 04:53:00
10:53 PM,53.1,50.0,89,30.05,10.0,NNW,3.5,-,N/A,,Mostly Cloudy,340,2012-11-02 05:53:00
11:25 PM,53.6,50.0,88,30.04,10.0,ESE,4.6,-,N/A,,Mostly Cloudy,120,2012-11-02 06:25:00
11:53 PM,52.0,50.0,93,30.04,10.0,South,3.5,-,N/A,,Partly Cloudy,180,2012-11-02 06:53:00